User: anonymous   Login
Location: Aulnoy
(48.8410°N, 3.0967°E)
Time: 11:04:20
(UTC+00:00)
Language:

Cosmos 909 Rocket - Orbit

View from above orbital plane
View from above orbital plane
View from above satellite
View from above satellite

Ground track
Ground track

The orbit data is extracted from the following two-line orbital elements,

1 10011U 77036B   23150.88681340 -.00000051  00000-0  79823-5 0  9996
2 10011  65.8664  81.2385 0692203 109.8738 316.0509 12.32228824 49770
Epoch (UTC): 30 May 2023 21:17:00
Eccentricity: 0.0692203
inclination: 65.8664°
perigee height: 991 km
apogee height: 2088 km
right ascension of ascending node: 81.2385°
argument of perigee: 109.8738°
revolutions per day: 12.32228824
mean anomaly at epoch: 316.0509°
orbit number at epoch: 4977

The dashed part of the orbit path shows where the satellite is in the earth's shadow,  

DLR